Location: Gönnheim
(49.4488°N, 8.2383°E)
Time: 07:34:43
(UTC+00:00)

ARIANE 6 FM1 Upper Stage - Pass Details

Date: 19 May 2025
Orbit: 530 x 611 km, 62.0° (Epoch: 22 June)

Event Time Altitude Azimuth Distance (km) Brightness Sun altitude
Rises 20:18:13 0° 218° (SW) 2,661 6.0 -9.4°
Reaches altitude 10° 20:20:24 10° 216° (SW) 1,775 5.1 -9.6°
Maximum altitude 20:24:21 74° 133° (SE) 559 2.5 -10.0°
Drops below altitude 10° 20:28:23 10° 48° (NE) 1,801 5.3 -10.5°
Sets 20:30:37 0° 46° (NE) 2,705 6.2 -10.7°
